| time (UTC) | temp C | wind direction | speed KPH | gust KPH | rain 1hr cm | rain 24hr cm | rain mn cm | humidity % | barometer mb |
| 20260904041705 | 17 | 265 | 0.0 | 3.2 | 0.00 | 0.00 | 0.00 | 72 | 1023.3 |
| 20260904040706 | 18 | 181 | 1.6 | 4.8 | 0.00 | 0.00 | 0.00 | 72 | 1022.9 |
| 20260904040205 | 18 | 116 | 1.6 | 3.2 | 0.00 | 0.00 | 0.00 | 73 | 1022.8 |
| 20260904035705 | 17 | 188 | 0.0 | 3.2 | 0.00 | 0.00 | 0.00 | 73 | 1023.2 |
| 20260904034204 | 17 | 221 | 1.6 | 4.8 | 0.00 | 0.00 | 0.00 | 73 | 1023.1 |
| 20260904033205 | 17 | 214 | 1.6 | 3.2 | 0.00 | 0.00 | 0.00 | 72 | 1022.9 |
| 20260904032705 | 17 | 206 | 3.2 | 8.0 | 0.00 | 0.00 | 0.00 | 72 | 1022.8 |
| 20260904032205 | 17 | 218 | 3.2 | 4.8 | 0.00 | 0.00 | 0.00 | 72 | 1022.8 |
| 20260904031205 | 17 | 174 | 0.0 | 3.2 | 0.00 | 0.00 | 0.00 | 72 | 1023.0 |
| 20260904030705 | 17 | 110 | 1.6 | 1.6 | 0.00 | 0.00 | 0.00 | 72 | 1023.1 |
| 20260904030205 | 17 | 135 | 0.0 | 3.2 | 0.00 | 0.00 | 0.00 | 72 | 1023.2 |
| 20260904025708 | 17 | 218 | 1.6 | 8.0 | 0.00 | 0.00 | 0.00 | 72 | 1022.9 |
| 20260904025206 | 17 | 197 | 3.2 | 8.0 | 0.00 | 0.00 | 0.00 | 72 | 1022.8 |
| 20260904024705 | 17 | 196 | 3.2 | 4.8 | 0.00 | 0.00 | 0.00 | 72 | 1022.8 |
| 20260904024205 | 17 | 199 | 1.6 | 4.8 | 0.00 | 0.00 | 0.00 | 72 | 1022.9 |
| 20260904023705 | 17 | 199 | 1.6 | 4.8 | 0.00 | 0.00 | 0.00 | 72 | 1022.9 |
| 20260904023205 | 17 | 208 | 1.6 | 3.2 | 0.00 | 0.00 | 0.00 | 71 | 1022.8 |
| 20260904022705 | 17 | 249 | 1.6 | 4.8 | 0.00 | 0.00 | 0.00 | 71 | 1023.0 |
| 20260904020705 | 17 | 90 | 1.6 | 3.2 | 0.00 | 0.00 | 0.00 | 70 | 1022.8 |
| 20260904020205 | 17 | 125 | 0.0 | 3.2 | 0.00 | 0.00 | 0.00 | 70 | 1022.8 |
| 20260904015705 | 17 | 113 | 1.6 | 4.8 | 0.00 | 0.00 | 0.00 | 70 | 1022.8 |
| 20260904015205 | 17 | 173 | 3.2 | 8.0 | 0.00 | 0.00 | 0.00 | 69 | 1022.7 |
| 20260904014707 | 17 | 178 | 3.2 | 8.0 | 0.00 | 0.00 | 0.00 | 69 | 1022.7 |
| 20260904014205 | 17 | 198 | 3.2 | 8.0 | 0.00 | 0.00 | 0.00 | 69 | 1022.9 |
| 20260904013705 | 18 | 147 | 0.0 | 3.2 | 0.00 | 0.00 | 0.00 | 68 | 1022.9 |
| 20260904012707 | 18 | 67 | 0.0 | 3.2 | 0.00 | 0.00 | 0.00 | 68 | 1022.9 |
| 20260904012205 | 18 | 167 | 1.6 | 4.8 | 0.00 | 0.00 | 0.00 | 68 | 1023.1 |
| 20260904011705 | 18 | 207 | 1.6 | 4.8 | 0.00 | 0.00 | 0.00 | 68 | 1023.1 |
| 20260904010705 | 18 | 204 | 1.6 | 3.2 | 0.00 | 0.00 | 0.00 | 67 | 1023.1 |
| 20260904010207 | 18 | 238 | 3.2 | 3.2 | 0.00 | 0.00 | 0.00 | 67 | 1023.2 |
| 20260904005207 | 18 | 310 | 0.0 | 3.2 | 0.00 | 0.00 | 0.00 | 66 | 1023.4 |
| 20260904003705 | 18 | 282 | 1.6 | 3.2 | 0.00 | 0.00 | 0.00 | 66 | 1023.5 |
| 20260904002705 | 18 | 279 | 1.6 | 3.2 | 0.00 | 0.00 | 0.00 | 66 | 1023.3 |
| 20260904002204 | 18 | 246 | 3.2 | 8.0 | 0.00 | 0.00 | 0.00 | 66 | 1023.5 |
| 20260904001205 | 18 | 243 | 4.8 | 8.0 | 0.00 | 0.00 | 0.00 | 67 | 1023.4 |
| 20260904000705 | 18 | 257 | 3.2 | 8.0 | 0.00 | 0.00 | 0.00 | 67 | 1023.6 |
| 20260904000205 | 18 | 268 | 3.2 | 9.7 | 0.00 | 0.00 | 0.00 | 68 | 1023.6 |
| 20260903235705 | 18 | 273 | 4.8 | 11.3 | 0.00 | 0.00 | 0.00 | 68 | 1023.5 |
| 20260903235207 | 17 | 279 | 6.4 | 9.7 | 0.00 | 0.00 | 0.00 | 69 | 1023.6 |
| 20260903234706 | 17 | 274 | 4.8 | 9.7 | 0.00 | 0.00 | 0.00 | 69 | 1023.7 |
| 20260903234205 | 17 | 275 | 4.8 | 8.0 | 0.00 | 0.00 | 0.00 | 69 | 1023.7 |
| 20260903233706 | 17 | 276 | 3.2 | 8.0 | 0.00 | 0.00 | 0.00 | 69 | 1023.8 |
| 20260903233205 | 17 | 272 | 3.2 | 4.8 | 0.00 | 0.00 | 0.00 | 69 | 1023.8 |
| 20260903231205 | 17 | 280 | 1.6 | 4.8 | 0.00 | 0.00 | 0.00 | 67 | 1023.7 |
| 20260903230704 | 17 | 292 | 3.2 | 4.8 | 0.00 | 0.00 | 0.00 | 66 | 1023.7 |
| 20260903230205 | 17 | 327 | 1.6 | 4.8 | 0.00 | 0.00 | 0.00 | 66 | 1023.7 |
| 20260903225705 | 17 | 329 | 1.6 | 3.2 | 0.00 | 0.00 | 0.00 | 66 | 1023.5 |
| 20260903225204 | 18 | 317 | 1.6 | 3.2 | 0.00 | 0.00 | 0.00 | 65 | 1023.6 |
| 20260903224704 | 18 | 312 | 0.0 | 3.2 | 0.00 | 0.00 | 0.00 | 65 | 1023.8 |
| 20260903224207 | 18 | 314 | 0.0 | 4.8 | 0.00 | 0.00 | 0.00 | 64 | 1023.6 |
| 20260903223205 | 18 | 314 | 3.2 | 8.0 | 0.00 | 0.00 | 0.00 | 64 | 1023.7 |
| 20260903222706 | 18 | 283 | 1.6 | 4.8 | 0.00 | 0.00 | 0.00 | 64 | 1023.9 |
| 20260903222206 | 18 | 288 | 3.2 | 9.7 | 0.00 | 0.00 | 0.00 | 64 | 1023.9 |
| 20260903220705 | 18 | 276 | 6.4 | 9.7 | 0.00 | 0.00 | 0.00 | 63 | 1023.7 |
| 20260903220205 | 18 | 279 | 4.8 | 9.7 | 0.00 | 0.00 | 0.00 | 63 | 1023.7 |
| 20260903215705 | 18 | 285 | 4.8 | 9.7 | 0.00 | 0.00 | 0.00 | 63 | 1023.7 |
| 20260903214204 | 18 | 289 | 4.8 | 11.3 | 0.00 | 0.00 | 0.00 | 64 | 1024.1 |
| 20260903213705 | 18 | 282 | 8.0 | 11.3 | 0.00 | 0.00 | 0.00 | 63 | 1023.9 |
| 20260903213205 | 18 | 287 | 4.8 | 9.7 | 0.00 | 0.00 | 0.00 | 63 | 1023.8 |
| 20260903212206 | 18 | 264 | 3.2 | 4.8 | 0.00 | 0.00 | 0.00 | 63 | 1023.6 |
| 20260903211205 | 18 | 296 | 3.2 | 4.8 | 0.00 | 0.00 | 0.00 | 63 | 1023.9 |
| 20260903210705 | 18 | 275 | 3.2 | 4.8 | 0.00 | 0.00 | 0.00 | 62 | 1023.8 |
| 20260903205704 | 18 | 282 | 3.2 | 8.0 | 0.00 | 0.00 | 0.00 | 62 | 1023.7 |
| 20260903205205 | 18 | 274 | 4.8 | 8.0 | 0.00 | 0.00 | 0.00 | 62 | 1023.7 |
| 20260903204705 | 18 | 276 | 4.8 | 8.0 | 0.00 | 0.00 | 0.00 | 63 | 1023.7 |
| 20260903203705 | 18 | 331 | 0.0 | 3.2 | 0.00 | 0.00 | 0.00 | 62 | 1023.7 |
| 20260903203205 | 18 | 317 | 1.6 | 3.2 | 0.00 | 0.00 | 0.00 | 62 | 1023.6 |
| 20260903202706 | 18 | 323 | 0.0 | 1.6 | 0.00 | 0.00 | 0.00 | 61 | 1023.5 |
| 20260903202205 | 18 | 312 | 1.6 | 3.2 | 0.00 | 0.00 | 0.00 | 60 | 1023.6 |
| 20260903201706 | 18 | 299 | 1.6 | 3.2 | 0.00 | 0.00 | 0.00 | 59 | 1023.6 |
| 20260903201205 | 18 | 308 | 1.6 | 3.2 | 0.00 | 0.00 | 0.00 | 57 | 1023.5 |
| 20260903200705 | 18 | 283 | 3.2 | 4.8 | 0.00 | 0.00 | 0.00 | 57 | 1023.4 |
| 20260903200205 | 18 | 281 | 3.2 | 4.8 | 0.00 | 0.00 | 0.00 | 57 | 1023.3 |
| 20260903195705 | 18 | 277 | 3.2 | 4.8 | 0.00 | 0.00 | 0.00 | 56 | 1023.5 |
| 20260903194706 | 18 | 262 | 3.2 | 3.2 | 0.00 | 0.00 | 0.00 | 56 | 1023.3 |
| 20260903193705 | 19 | 277 | 3.2 | 3.2 | 0.00 | 0.00 | 0.00 | 56 | 1023.4 |
| 20260903192205 | 19 | 279 | 1.6 | 3.2 | 0.00 | 0.00 | 0.00 | 55 | 1023.2 |
| 20260903191706 | 20 | 277 | 1.6 | 3.2 | 0.00 | 0.00 | 0.00 | 55 | 1023.0 |
| 20260903191205 | 20 | 271 | 1.6 | 3.2 | 0.00 | 0.00 | 0.00 | 55 | 1023.1 |
| 20260903190707 | 20 | 285 | 1.6 | 3.2 | 0.00 | 0.00 | 0.00 | 55 | 1023.1 |
| 20260903185705 | 20 | 269 | 1.6 | 3.2 | 0.00 | 0.00 | 0.00 | 54 | 1023.3 |
| 20260903184705 | 20 | 285 | 1.6 | 3.2 | 0.00 | 0.00 | 0.00 | 55 | 1023.3 |
| 20260903184205 | 20 | 267 | 0.0 | 3.2 | 0.00 | 0.00 | 0.00 | 55 | 1023.2 |
| 20260903183707 | 20 | 275 | 1.6 | 3.2 | 0.00 | 0.00 | 0.00 | 54 | 1023.1 |
| 20260903183205 | 20 | 277 | 1.6 | 3.2 | 0.00 | 0.00 | 0.00 | 53 | 1023.0 |
| 20260903182705 | 20 | 270 | 1.6 | 3.2 | 0.00 | 0.00 | 0.00 | 53 | 1023.2 |
| 20260903182206 | 21 | 273 | 3.2 | 4.8 | 0.00 | 0.00 | 0.00 | 53 | 1022.9 |
| 20260903181205 | 21 | 274 | 3.2 | 3.2 | 0.00 | 0.00 | 0.00 | 53 | 1022.8 |
| 20260903180704 | 21 | 266 | 1.6 | 3.2 | 0.00 | 0.00 | 0.00 | 55 | 1022.8 |
| 20260903180205 | 21 | 278 | 1.6 | 3.2 | 0.00 | 0.00 | 0.00 | 55 | 1022.7 |
| 20260903175705 | 21 | 287 | 1.6 | 3.2 | 0.00 | 0.00 | 0.00 | 55 | 1022.5 |
| 20260903175205 | 21 | 290 | 0.0 | 1.6 | 0.00 | 0.00 | 0.00 | 54 | 1022.5 |
| 20260903174706 | 22 | 331 | 1.6 | 1.6 | 0.00 | 0.00 | 0.00 | 53 | 1022.5 |
| 20260903174205 | 22 | 290 | 1.6 | 1.6 | 0.00 | 0.00 | 0.00 | 52 | 1022.8 |
| 20260903173705 | 22 | 309 | 0.0 | 3.2 | 0.00 | 0.00 | 0.00 | 52 | 1022.4 |
| 20260903172705 | 22 | 292 | 1.6 | 3.2 | 0.00 | 0.00 | 0.00 | 50 | 1022.5 |
| 20260903172205 | 22 | 309 | 1.6 | 1.6 | 0.00 | 0.00 | 0.00 | 49 | 1022.3 |
| 20260903171705 | 22 | 279 | 0.0 | 1.6 | 0.00 | 0.00 | 0.00 | 49 | 1022.4 |
| 20260903170705 | 23 | 308 | 0.0 | 1.6 | 0.00 | 0.00 | 0.00 | 47 | 1022.5 |
| 20260903165706 | 23 | 319 | 0.0 | 1.6 | 0.00 | 0.00 | 0.00 | 45 | 1022.2 |
| 20260903165204 | 23 | 324 | 1.6 | 3.2 | 0.00 | 0.00 | 0.00 | 45 | 1022.5 |
| 20260903164705 | 23 | 303 | 0.0 | 1.6 | 0.00 | 0.00 | 0.00 | 44 | 1022.5 |
| 20260903164205 | 23 | 271 | 0.0 | 1.6 | 0.00 | 0.00 | 0.00 | 43 | 1022.4 |
| 20260903163206 | 24 | 6 | 0.0 | 3.2 | 0.00 | 0.00 | 0.00 | 43 | 1022.2 |
| 20260903162705 | 24 | 350 | 1.6 | 3.2 | 0.00 | 0.00 | 0.00 | 42 | 1022.2 |
| 20260903162205 | 25 | 316 | 0.0 | 4.8 | 0.00 | 0.00 | 0.00 | 41 | 1022.3 |
| 20260903161705 | 25 | 324 | 3.2 | 4.8 | 0.00 | 0.00 | 0.00 | 41 | 1022.4 |
| 20260903161206 | 25 | 339 | 3.2 | 4.8 | 0.00 | 0.00 | 0.00 | 40 | 1022.4 |
| 20260903160705 | 25 | 343 | 4.8 | 8.0 | 0.00 | 0.00 | 0.00 | 40 | 1022.2 |
| 20260903153706 | 25 | 337 | 3.2 | 11.3 | 0.00 | 0.00 | 0.00 | 38 | 1022.2 |
| 20260903153205 | 25 | 334 | 6.4 | 11.3 | 0.00 | 0.00 | 0.00 | 37 | 1022.3 |
| 20260903152705 | 25 | 340 | 4.8 | 11.3 | 0.00 | 0.00 | 0.00 | 37 | 1022.3 |
| 20260903152205 | 26 | 335 | 4.8 | 12.9 | 0.00 | 0.00 | 0.00 | 37 | 1022.5 |
| 20260903151206 | 26 | 318 | 9.7 | 19.3 | 0.00 | 0.00 | 0.00 | 37 | 1022.5 |
| 20260903150705 | 26 | 330 | 8.0 | 14.5 | 0.00 | 0.00 | 0.00 | 37 | 1022.6 |
| 20260903145706 | 26 | 318 | 9.7 | 19.3 | 0.00 | 0.00 | 0.00 | 36 | 1022.5 |
| 20260903144706 | 26 | 348 | 4.8 | 16.1 | 0.00 | 0.00 | 0.00 | 36 | 1022.3 |
| 20260903144206 | 27 | 284 | 8.0 | 16.1 | 0.00 | 0.00 | 0.00 | 36 | 1022.3 |
| 20260903143706 | 27 | 337 | 8.0 | 16.1 | 0.00 | 0.00 | 0.00 | 35 | 1022.4 |
| 20260903142705 | 27 | 287 | 14.5 | 25.7 | 0.00 | 0.00 | 0.00 | 34 | 1022.3 |
| 20260903141706 | 27 | 279 | 12.9 | 27.4 | 0.00 | 0.00 | 0.00 | 34 | 1022.5 |
| 20260903141205 | 27 | 287 | 12.9 | 25.7 | 0.00 | 0.00 | 0.00 | 34 | 1022.5 |
| 20260903140705 | 27 | 287 | 9.7 | 22.5 | 0.00 | 0.00 | 0.00 | 34 | 1022.4 |
| 20260903140205 | 27 | 276 | 12.9 | 27.4 | 0.00 | 0.00 | 0.00 | 34 | 1022.2 |
| 20260903135207 | 28 | 299 | 14.5 | 27.4 | 0.00 | 0.00 | 0.00 | 33 | 1022.2 |
| 20260903134706 | 28 | 280 | 14.5 | 32.2 | 0.00 | 0.00 | 0.00 | 34 | 1022.2 |
| 20260903134205 | 28 | 336 | 9.7 | 24.1 | 0.00 | 0.00 | 0.00 | 36 | 1022.2 |
| 20260903133705 | 28 | 275 | 19.3 | 33.8 | 0.00 | 0.00 | 0.00 | 35 | 1022.5 |
| 20260903133205 | 28 | 286 | 16.1 | 27.4 | 0.00 | 0.00 | 0.00 | 36 | 1022.4 |
| 20260903132707 | 28 | 289 | 11.3 | 27.4 | 0.00 | 0.00 | 0.00 | 37 | 1022.1 |
| 20260903131705 | 28 | 277 | 9.7 | 20.9 | 0.00 | 0.00 | 0.00 | 37 | 1022.5 |
| 20260903131205 | 27 | 290 | 8.0 | 19.3 | 0.00 | 0.00 | 0.00 | 38 | 1022.5 |
| 20260903130705 | 27 | 282 | 11.3 | 24.1 | 0.00 | 0.00 | 0.00 | 36 | 1022.5 |
| 20260903124205 | 28 | 286 | 8.0 | 20.9 | 0.00 | 0.00 | 0.00 | 38 | 1023.0 |
| 20260903123705 | 27 | 282 | 17.7 | 32.2 | 0.00 | 0.00 | 0.00 | 39 | 1022.7 |
| 20260903123207 | 27 | 275 | 11.3 | 24.1 | 0.00 | 0.00 | 0.00 | 39 | 1023.2 |
| 20260903122705 | 27 | 285 | 9.7 | 22.5 | 0.00 | 0.00 | 0.00 | 40 | 1022.9 |
| 20260903122205 | 27 | 289 | 16.1 | 25.7 | 0.00 | 0.00 | 0.00 | 40 | 1023.0 |
| 20260903121705 | 27 | 327 | 6.4 | 12.9 | 0.00 | 0.00 | 0.00 | 40 | 1023.1 |
| 20260903121205 | 26 | 291 | 9.7 | 20.9 | 0.00 | 0.00 | 0.00 | 41 | 1023.2 |
| 20260903120707 | 26 | 283 | 14.5 | 22.5 | 0.00 | 0.00 | 0.00 | 40 | 1023.2 |
| 20260903120205 | 26 | 283 | 14.5 | 24.1 | 0.00 | 0.00 | 0.00 | 41 | 1023.0 |
| 20260903115705 | 26 | 344 | 9.7 | 24.1 | 0.00 | 0.00 | 0.00 | 40 | 1023.4 |
| 20260903115206 | 26 | 312 | 14.5 | 25.7 | 0.00 | 0.00 | 0.00 | 40 | 1023.3 |
| 20260903114705 | 26 | 303 | 4.8 | 19.3 | 0.00 | 0.00 | 0.00 | 42 | 1023.3 |
| 20260903113705 | 26 | 302 | 6.4 | 12.9 | 0.00 | 0.00 | 0.00 | 43 | 1023.3 |
| 20260903113205 | 26 | 287 | 11.3 | 20.9 | 0.00 | 0.00 | 0.00 | 43 | 1023.3 |
| 20260903112706 | 26 | 277 | 9.7 | 19.3 | 0.00 | 0.00 | 0.00 | 43 | 1023.4 |
| 20260903112205 | 26 | 287 | 11.3 | 20.9 | 0.00 | 0.00 | 0.00 | 43 | 1023.4 |
| 20260903111205 | 26 | 273 | 3.2 | 9.7 | 0.00 | 0.00 | 0.00 | 47 | 1023.6 |
| 20260903110706 | 26 | 321 | 4.8 | 11.3 | 0.00 | 0.00 | 0.00 | 45 | 1023.6 |
| 20260903110205 | 26 | 22 | 3.2 | 8.0 | 0.00 | 0.00 | 0.00 | 46 | 1023.7 |
| 20260903105205 | 27 | 3 | 4.8 | 9.7 | 0.00 | 0.00 | 0.00 | 44 | 1023.6 |
| 20260903104705 | 27 | 297 | 4.8 | 12.9 | 0.00 | 0.00 | 0.00 | 46 | 1023.7 |
| 20260903104206 | 27 | 356 | 6.4 | 16.1 | 0.00 | 0.00 | 0.00 | 45 | 1023.6 |
| 20260903103705 | 27 | 358 | 4.8 | 11.3 | 0.00 | 0.00 | 0.00 | 44 | 1023.8 |
| 20260903103206 | 27 | 358 | 6.4 | 14.5 | 0.00 | 0.00 | 0.00 | 46 | 1023.8 |
| 20260903102705 | 27 | 66 | 3.2 | 11.3 | 0.00 | 0.00 | 0.00 | 47 | 1023.9 |
| 20260903101707 | 26 | 313 | 3.2 | 20.9 | 0.00 | 0.00 | 0.00 | 46 | 1023.9 |
| 20260903100706 | 26 | 346 | 4.8 | 11.3 | 0.00 | 0.00 | 0.00 | 47 | 1024.2 |
| 20260903100206 | 26 | 275 | 6.4 | 16.1 | 0.00 | 0.00 | 0.00 | 47 | 1024.2 |
| 20260903095705 | 26 | 11 | 8.0 | 11.3 | 0.00 | 0.00 | 0.00 | 47 | 1024.1 |
| 20260903095207 | 26 | 320 | 8.0 | 14.5 | 0.00 | 0.00 | 0.00 | 49 | 1024.2 |
| 20260903094705 | 26 | 279 | 6.4 | 11.3 | 0.00 | 0.00 | 0.00 | 51 | 1024.3 |
| 20260903094206 | 26 | 310 | 3.2 | 8.0 | 0.00 | 0.00 | 0.00 | 51 | 1024.4 |
| 20260903093705 | 25 | 339 | 1.6 | 8.0 | 0.00 | 0.00 | 0.00 | 51 | 1024.5 |
| 20260903093205 | 25 | 5 | 3.2 | 9.7 | 0.00 | 0.00 | 0.00 | 52 | 1024.6 |
| 20260903092707 | 25 | 306 | 3.2 | 8.0 | 0.00 | 0.00 | 0.00 | 52 | 1024.6 |
| 20260903092206 | 25 | 301 | 3.2 | 11.3 | 0.00 | 0.00 | 0.00 | 52 | 1024.5 |
| 20260903091705 | 25 | 217 | 3.2 | 8.0 | 0.00 | 0.00 | 0.00 | 53 | 1024.6 |
| 20260903091205 | 24 | 37 | 3.2 | 8.0 | 0.00 | 0.00 | 0.00 | 54 | 1024.8 |
| 20260903090206 | 24 | 3 | 4.8 | 8.0 | 0.00 | 0.00 | 0.00 | 56 | 1024.9 |
| 20260903085705 | 23 | 28 | 1.6 | 4.8 | 0.00 | 0.00 | 0.00 | 57 | 1025.1 |
| 20260903085207 | 23 | 35 | 1.6 | 4.8 | 0.00 | 0.00 | 0.00 | 58 | 1024.9 |
| 20260903084706 | 23 | 285 | 3.2 | 4.8 | 0.00 | 0.00 | 0.00 | 59 | 1024.9 |
| 20260903084205 | 22 | 33 | 3.2 | 9.7 | 0.00 | 0.00 | 0.00 | 61 | 1024.8 |
| 20260903083705 | 22 | 353 | 4.8 | 9.7 | 0.00 | 0.00 | 0.00 | 61 | 1024.9 |
| 20260903083206 | 21 | 359 | 3.2 | 8.0 | 0.00 | 0.00 | 0.00 | 62 | 1025.2 |
| 20260903082705 | 21 | 337 | 3.2 | 8.0 | 0.00 | 0.00 | 0.00 | 63 | 1025.2 |
| 20260903082207 | 21 | 304 | 3.2 | 4.8 | 0.00 | 0.00 | 0.00 | 63 | 1025.1 |
| 20260903081707 | 21 | 275 | 3.2 | 4.8 | 0.00 | 0.00 | 0.00 | 64 | 1025.1 |
| 20260903081205 | 21 | 325 | 1.6 | 3.2 | 0.00 | 0.00 | 0.00 | 65 | 1025.0 |
| 20260903080706 | 20 | 285 | 3.2 | 8.0 | 0.00 | 0.00 | 0.00 | 65 | 1024.9 |
| 20260903080206 | 20 | 261 | 4.8 | 8.0 | 0.00 | 0.00 | 0.00 | 65 | 1025.0 |
| 20260903074705 | 20 | 296 | 4.8 | 4.8 | 0.00 | 0.00 | 0.00 | 67 | 1025.0 |
| 20260903074205 | 19 | 263 | 3.2 | 4.8 | 0.00 | 0.00 | 0.00 | 67 | 1025.1 |
| 20260903073705 | 19 | 292 | 3.2 | 4.8 | 0.00 | 0.00 | 0.00 | 68 | 1025.2 |
| 20260903073205 | 19 | 267 | 3.2 | 3.2 | 0.00 | 0.00 | 0.00 | 69 | 1025.1 |
| 20260903072705 | 18 | 291 | 0.0 | 1.6 | 0.00 | 0.00 | 0.00 | 69 | 1025.1 |
| 20260903072205 | 18 | 173 | 1.6 | 4.8 | 0.00 | 0.00 | 0.00 | 69 | 1025.2 |
| 20260903071705 | 18 | 267 | 1.6 | 4.8 | 0.00 | 0.00 | 0.00 | 70 | 1025.2 |
| 20260903071206 | 18 | 272 | 3.2 | 4.8 | 0.00 | 0.00 | 0.00 | 71 | 1025.2 |
| 20260903070705 | 18 | 214 | 3.2 | 4.8 | 0.00 | 0.00 | 0.00 | 71 | 1025.2 |
| 20260903065705 | 17 | 251 | 1.6 | 4.8 | 0.00 | 0.00 | 0.00 | 73 | 1025.2 |
| 20260903065206 | 17 | 276 | 1.6 | 3.2 | 0.00 | 0.00 | 0.00 | 74 | 1025.1 |
| 20260903063705 | 17 | 250 | 3.2 | 8.0 | 0.00 | 0.00 | 0.00 | 76 | 1025.4 |
| 20260903063207 | 16 | 247 | 3.2 | 8.0 | 0.00 | 0.00 | 0.00 | 77 | 1025.3 |
| 20260903061705 | 16 | 248 | 3.2 | 8.0 | 0.00 | 0.00 | 0.00 | 80 | 1025.0 |
| 20260903061205 | 16 | 239 | 3.2 | 8.0 | 0.00 | 0.00 | 0.00 | 80 | 1025.2 |
| 20260903060705 | 16 | 233 | 4.8 | 8.0 | 0.00 | 0.00 | 0.00 | 81 | 1025.1 |
| 20260903060206 | 15 | 248 | 3.2 | 8.0 | 0.00 | 0.00 | 0.00 | 82 | 1024.7 |
| 20260903055706 | 15 | 225 | 1.6 | 4.8 | 0.00 | 0.00 | 0.00 | 82 | 1024.8 |
| 20260903055207 | 15 | 239 | 3.2 | 4.8 | 0.00 | 0.00 | 0.00 | 82 | 1024.8 |
| 20260903054705 | 15 | 245 | 3.2 | 4.8 | 0.00 | 0.00 | 0.00 | 83 | 1024.8 |
| 20260903054205 | 15 | 260 | 1.6 | 3.2 | 0.00 | 0.00 | 0.00 | 83 | 1024.8 |
| 20260903053706 | 15 | 267 | 1.6 | 3.2 | 0.00 | 0.00 | 0.00 | 84 | 1024.7 |
| 20260903052705 | 14 | 309 | 1.6 | 3.2 | 0.00 | 0.00 | 0.00 | 84 | 1024.6 |
| 20260903052205 | 14 | 350 | 1.6 | 4.8 | 0.00 | 0.00 | 0.00 | 84 | 1024.7 |
| 20260903051705 | 14 | 62 | 1.6 | 3.2 | 0.00 | 0.00 | 0.00 | 83 | 1024.6 |
| 20260903050705 | 13 | 329 | 1.6 | 3.2 | 0.00 | 0.00 | 0.00 | 83 | 1024.7 |
| 20260903045705 | 13 | 1 | 1.6 | 3.2 | 0.00 | 0.00 | 0.00 | 83 | 1024.4 |
| 20260903045206 | 13 | 1 | 1.6 | 3.2 | 0.00 | 0.00 | 0.00 | 83 | 1024.4 |
| 20260903044207 | 13 | 336 | 1.6 | 3.2 | 0.00 | 0.00 | 0.00 | 83 | 1024.5 |
| 20260903043705 | 13 | 351 | 1.6 | 4.8 | 0.00 | 0.00 | 0.00 | 83 | 1024.5 |
| 20260903042705 | 13 | 91 | 1.6 | 3.2 | 0.00 | 0.00 | 0.00 | 83 | 1024.8 |